sat.trackr.live / text

‹ back to catalog

HULIANWANG DIGUI-121

NORAD 67061 · 2025-295C

PAYLOAD ACTIVE UNKNOWN

§ Identity

Operator
Country
PRC
Launch date
2025-12-11
Launch site
WSC
Launch vehicle
Mass (kg)
RCS (m²)

External: N2YO · Heavens-Above · Gunter

§ Orbital elements

Epoch: 2026-05-25T03:26:24.746208Z

Period
108.33 min
Inclination
49.9990°
Eccentricity
0.0000837
Mean motion
13.29327126 rev/d
Perigee alt
1,148.7 km
Apogee alt
1,149.9 km
Semi-major
7,527.4 km
B*
8.6151e-5
RAAN
108.3053°
Arg perigee
353.1965°
Mean anomaly
6.8896°
Rev number
2,243

§ Raw data

HULIANWANG DIGUI-1211 67061U 25295C   26145.14334197 -.00000084  00000+0  86151-4 0  99902 67061  49.9990 108.3053 0000837 353.1965   6.8896 13.29327126 22436

JSON: /api/v1/satellites/67061 · /tle

For live sub-satellite position, see the globe view (requires WebGL).

§ Visibility from observer

Set your observer location to see the next 7 days of passes ≥ 10°. The values pass through the URL so the page stays shareable.

No JS? Fill the form by hand. The geolocation button needs JavaScript.